Pian Rosa, Italy

6:12 PM CEST on August 20, 2017 (GMT +0200)
Pian Rosa

Weather History for LIMH - April, 2013

Change the Weather History Date:

Monday, April 1, 2013

  Actual Average Record
Temperature  
Mean Temperature 11 °F -  
Max Temperature 18 °F 22 °F 30 °F (2011)
Min Temperature 4 °F 11 °F 1 °F (2015)
Degree Days  
Heating Degree Days 54    
Moisture  
Dew Point -14 °F    
Average Humidity 27    
Maximum Humidity 57    
Minimum Humidity 5    
Precipitation  
Precipitation 0.00 in - - ()
Sea Level Pressure  
Sea Level Pressure 29.44 in    
Wind  
Wind Speed 10 mph ()    
Max Wind Speed 16 mph    
Max Gust Speed -    
Visibility 7.5 miles    
Events      
Averages and records for this station are not official NWS values.
T = Trace of Precipitation, MM = Missing Value Source: Averaged Metar Reports

Daily Weather History Graph

Daily Weather History Graph

Search for Another Location

Airport or City:

Trip Planner

Search our weather history database for the weather conditions in past years. The results will help you decide how hot, cold, wet, or windy it might be!

Date:

Astronomy

Apr. 01, 2013 Rise Set
Actual Time 7:09 AM CEST 7:57 PM CEST
Civil Twilight 6:39 AM CEST 8:27 PM CEST
Nautical Twilight 6:03 AM CEST 9:04 PM CEST
Astronomical Twilight 5:25 AM CEST 9:41 PM CEST
Moon 1:03 AM CEST (4/1) 10:25 AM CEST (4/1)
Length of Visible Light 13h 48m
Length of Day
12h 48m
Waning Gibbous, 70% of the Moon is Illuminated
Apr 1
Waning Gibbous
Apr 3
Last Quarter
Apr 10
New
Apr 18
First Quarter
Apr 25
Full

Hourly Weather History & Observations

Time (CEST) Temp. Windchill Dew Point Humidity Pressure Visibility Wind Dir Wind Speed Gust Speed Precip Events Conditions
12:55 AM 5.0 °F -10.0 °F -20.2 °F 30% 29.42 in - SW 10.4 mph - N/A   Clear
1:55 AM 6.8 °F -10.7 °F -22.0 °F 26% 29.44 in - SW 15.0 mph - N/A   Clear
2:00 AM 7 °F - -22 °F 11%  in 6 mi SW 15.0 mph - -  
2:55 AM 8.6 °F -7.0 °F -22.0 °F 24% 29.44 in - SW 12.7 mph - N/A   Clear
3:55 AM 10.4 °F -4.8 °F -22.0 °F 22% 29.42 in - SSW 12.7 mph - N/A   Clear
4:55 AM 10.4 °F -0.4 °F -14.8 °F 31% 29.44 in - SSW 6.9 mph - N/A   Clear
5:00 AM 11 °F - -15 °F 15%  in 6 mi SSW 6.9 mph - -  
5:55 AM 12.2 °F -1.0 °F -22.0 °F 20% 29.42 in - South 10.4 mph - N/A   Clear
6:55 AM 10.4 °F -6.6 °F -22.0 °F 22% 29.42 in - SSW 16.1 mph - N/A   Clear
7:55 AM 8.6 °F -7.7 °F -22.0 °F 24% 29.42 in - SSW 13.8 mph - N/A   Clear
8:00 AM 9 °F - -22 °F 10%  in 12 mi SSW 13.8 mph - -  
9:55 AM 14.0 °F -2.0 °F -22.0 °F 19% 29.44 in - SW 16.1 mph - N/A   Clear
10:55 AM 14.0 °F -0.8 °F -22.0 °F 19% 29.44 in - SW 13.8 mph - N/A   Clear
11:00 AM 15 °F - -22 °F 6%  in 47 mi SW 13.8 mph - -   Clear
11:55 AM 17.6 °F 5.7 °F -22.0 °F 16% 29.44 in - South 10.4 mph - N/A   Clear
12:55 PM 17.6 °F 2.7 °F -22.0 °F 16% 29.44 in - SW 16.1 mph - N/A   Clear
1:55 PM 17.6 °F 4.3 °F -22.0 °F 16% 29.44 in - SSW 12.7 mph - N/A   Clear
2:00 PM 18 °F - -22 °F 5%  in 37 mi SSW 12.7 mph - -   Clear
2:55 PM 17.6 °F 5.7 °F -22.0 °F 16% 29.47 in - SSW 10.4 mph - N/A   Clear
3:55 PM 17.6 °F 7.3 °F -14.8 °F 23% 29.44 in - SSW 8.1 mph - N/A   Clear
4:55 PM 17.6 °F 8.2 °F -9.4 °F 30% 29.44 in - SW 6.9 mph - N/A   Clear
5:00 PM 18 °F - -9 °F 15%  in 37 mi SW 6.9 mph - -   Overcast
5:55 PM 17.6 °F 8.2 °F -5.8 °F 35% 29.44 in - South 6.9 mph - N/A   Clear
6:55 PM 17.6 °F 5.7 °F -0.4 °F 45% 29.44 in - South 10.4 mph - N/A   Clear
7:55 PM 15.8 °F 7.2 °F -0.4 °F 49% 29.47 in - SE 5.8 mph - N/A   Clear
8:00 PM 16 °F - -0 °F 34%  in 31 mi SE 5.8 mph - -   Clear
8:55 PM 15.8 °F 8.6 °F -0.4 °F 49% 29.47 in - South 4.6 mph - N/A   Clear
9:55 PM 14.0 °F 6.5 °F 1.4 °F 57% 29.47 in - WSW 4.6 mph - N/A   Clear
10:55 PM 14.0 °F 2.9 °F 1.4 °F 57% 29.47 in - South 8.1 mph - N/A   Clear
11:00 PM 14 °F - 1 °F 42%  in 6 mi South 8.1 mph - -   Partly Cloudy
11:55 PM 12.2 °F 2.9 °F -2.2 °F 53% 29.47 in - ENE 5.8 mph - N/A   Clear